Alexandria, LA

10:17 AM CST on January 23, 2018 (GMT -0600)
Alexandria International

Weather History for KAEX - December, 2013

Change the Weather History Date:

Tuesday, December 10, 2013

  Actual Average Record
Temperature  
Mean Temperature 41 °F 51 °F  
Max Temperature 48 °F 61 °F 83 °F (2007)
Min Temperature 33 °F 41 °F 20 °F (1917)
Degree Days  
Heating Degree Days 24 15  
Month to date heating degree days 142 139  
Since 1 July heating degree days 518 464  
Moisture  
Dew Point 31 °F    
Average Humidity 75    
Maximum Humidity 100    
Minimum Humidity 50    
Precipitation  
Precipitation 0.00 in 0.26 in 1.84 in (1932)
Month to date precipitation 0.56 2.56  
Year to date precipitation 53.05 52.36  
Snow  
Snow 0.00 in - 1.00 in (1898)
Month to date snowfall 0.0  
Since 1 July snowfall 0.0  
Snow Depth 0.00 in    
Sea Level Pressure  
Sea Level Pressure 30.38 in    
Wind  
Wind Speed 9 mph (North)    
Max Wind Speed 21 mph    
Max Gust Speed 26 mph    
Visibility 10 miles    
Events      
T = Trace of Precipitation, MM = Missing Value Source: NWS Daily Summary

Daily Weather History Graph

Daily Weather History Graph

Search for Another Location

Airport or City:

Trip Planner

Search our weather history database for the weather conditions in past years. The results will help you decide how hot, cold, wet, or windy it might be!

Date:

Astronomy

Dec. 10, 2013 Rise Set
Actual Time 6:58 AM CST 5:07 PM CST
Civil Twilight 6:31 AM CST 5:34 PM CST
Nautical Twilight 6:01 AM CST 6:04 PM CST
Astronomical Twilight 5:32 AM CST 6:34 PM CST
Moon 12:50 PM CST (12/10) 12:38 AM CST (12/10)
Length of Visible Light 11h 02m
Length of Day
10h 09m
Waxing Gibbous, 62% of the Moon is Illuminated
Dec 10
Waxing Gibbous
Dec 17
Full
Dec 25
Last Quarter
Jan 1
New
Jan 7
First Quarter

Hourly Weather History & Observations

Time (CST) Temp. Windchill Dew Point Humidity Pressure Visibility Wind Dir Wind Speed Gust Speed Precip Events Conditions
12:53 AM 36.0 °F 27.5 °F 34.0 °F 93% 30.31 in 10.0 mi NNW 12.7 mph - N/A   Overcast
1:36 AM 35.6 °F 27.5 °F 33.8 °F 93% 30.28 in 10.0 mi NNW 11.5 mph - N/A   Overcast
1:53 AM 36.0 °F 29.6 °F 34.0 °F 93% 30.30 in 10.0 mi North 8.1 mph - N/A   Overcast
2:27 AM 35.6 °F 29.9 °F 33.8 °F 93% 30.28 in 10.0 mi North 6.9 mph - N/A   Overcast
2:53 AM 36.0 °F 28.5 °F 33.1 °F 89% 30.31 in 10.0 mi NNW 10.4 mph - N/A   Overcast
3:00 AM 35.6 °F 28.0 °F 33.8 °F 93% 30.30 in 10.0 mi NW 10.4 mph - N/A   Overcast
3:53 AM 36.0 °F 26.7 °F 33.1 °F 89% 30.34 in 10.0 mi NNW 15.0 mph 23.0 mph N/A   Overcast
4:53 AM 36.0 °F 26.0 °F 32.0 °F 86% 30.36 in 10.0 mi NNW 17.3 mph 24.2 mph N/A   Overcast
5:03 AM 35.6 °F 26.6 °F 32.0 °F 87% 30.34 in 10.0 mi NNW 13.8 mph 21.9 mph N/A   Overcast
5:21 AM 35.6 °F 27.5 °F 33.8 °F 93% 30.36 in 10.0 mi NNW 11.5 mph - N/A   Overcast
5:46 AM 35.6 °F 27.1 °F 30.2 °F 81% 30.37 in 10.0 mi NNW 12.7 mph 19.6 mph N/A   Overcast
5:53 AM 36.0 °F 26.3 °F 30.9 °F 82% 30.39 in 10.0 mi North 16.1 mph 23.0 mph N/A   Overcast
6:53 AM 35.1 °F 26.9 °F 30.9 °F 85% 30.41 in 10.0 mi North 11.5 mph 24.2 mph N/A   Overcast
7:16 AM 35.6 °F 29.2 °F 30.2 °F 81% 30.39 in 10.0 mi North 8.1 mph - N/A   Overcast
7:53 AM 35.1 °F 25.9 °F 30.0 °F 82% 30.43 in 10.0 mi North 13.8 mph - N/A   Overcast
8:23 AM 35.6 °F 27.5 °F 30.2 °F 81% 30.42 in 10.0 mi North 11.5 mph - N/A   Overcast
8:53 AM 36.0 °F 28.0 °F 28.9 °F 76% 30.44 in 10.0 mi NNE 11.5 mph - N/A   Overcast
9:36 AM 37.4 °F 29.3 °F 28.4 °F 70% 30.43 in 10.0 mi NNE 12.7 mph 19.6 mph N/A   Scattered Clouds
9:53 AM 39.0 °F 32.8 °F 28.9 °F 67% 30.45 in 10.0 mi NE 9.2 mph - N/A   Scattered Clouds
10:05 AM 39.2 °F 34.2 °F 28.4 °F 65% 30.43 in 10.0 mi NNW 6.9 mph - N/A   Mostly Cloudy
10:12 AM 39.2 °F 31.2 °F 28.4 °F 65% 30.42 in 10.0 mi NE 13.8 mph - N/A   Scattered Clouds
10:49 AM 42.8 °F 38.0 °F 30.2 °F 61% 30.43 in 10.0 mi NNW 8.1 mph - N/A   Mostly Cloudy
10:53 AM 41.0 °F 35.8 °F 30.0 °F 65% 30.44 in 10.0 mi North 8.1 mph - N/A   Mostly Cloudy
11:25 AM 42.8 °F 39.3 °F 28.4 °F 57% 30.41 in 10.0 mi Variable 5.8 mph - N/A   Scattered Clouds
11:53 AM 42.1 °F 36.1 °F 30.0 °F 62% 30.42 in 10.0 mi North 10.4 mph - N/A   Clear
12:53 PM 45.0 °F 40.6 °F 30.0 °F 56% 30.39 in 10.0 mi ENE 8.1 mph - N/A   Clear
1:53 PM 46.9 °F - 30.9 °F 54% 30.36 in 10.0 mi North 8.1 mph - N/A   Clear
2:53 PM 48.0 °F - 30.0 °F 50% 30.36 in 10.0 mi NE 8.1 mph - N/A   Clear
3:53 PM 46.9 °F - 30.0 °F 52% 30.36 in 10.0 mi NNE 9.2 mph - N/A   Clear
4:53 PM 45.0 °F 41.2 °F 30.9 °F 58% 30.37 in 10.0 mi NNE 6.9 mph - N/A   Clear
5:53 PM 41.0 °F 39.0 °F 30.0 °F 65% 30.37 in 10.0 mi NNE 3.5 mph - N/A   Clear
6:53 PM 39.0 °F 35.7 °F 30.9 °F 73% 30.38 in 10.0 mi NNE 4.6 mph - N/A   Clear
7:53 PM 37.0 °F 34.5 °F 30.9 °F 79% 30.39 in 10.0 mi NNE 3.5 mph - N/A   Clear
8:53 PM 36.0 °F 31.1 °F 30.0 °F 79% 30.38 in 10.0 mi NNE 5.8 mph - N/A   Clear
9:53 PM 35.1 °F - 30.0 °F 82% 30.40 in 10.0 mi Calm Calm - N/A   Clear
10:53 PM 34.0 °F 31.0 °F 28.9 °F 82% 30.40 in 10.0 mi NE 3.5 mph - N/A   Clear
11:53 PM 34.0 °F 31.0 °F 28.9 °F 82% 30.39 in 10.0 mi ENE 3.5 mph - N/A   Clear